Regional Weather Roundup
Issued by NWS

Home | Current Version | Previous Version | Text Only | Print | Product List | Glossary On
Versions: 1 2 3 4 5 6 7 8 9 10 11 12 13 14 15 16 17 18 19 20 21 22 23 24 25 26 27 28 29 30 31 32 33 34
000
ASUS44 KLIX 281511
RWRLA
LOUISIANA WEATHER ROUNDUP
NATIONAL WEATHER SERVICE NEW ORLEANS LA
1000 AM CDT TUE JUN 28 2016

NOTE: "FAIR" INDICATES FEW OR NO CLOUDS BELOW 12,000 FEET WITH NO
      SIGNIFICANT WEATHER AND/OR OBSTRUCTIONS TO VISIBILITY.
      SKY/WX - SKY CONDITION AND SIGNIFICANT WEATHER.
      TMP - AIR TEMPERATURE.    DP   - DEWPOINT TEMPERATURE.
      RH  - RELATIVE HUMIDITY.  PRES - PRESSURE.
      HX  - HEAT INDEX.         WCI  - WIND CHILL INDEX.

*  THESE STATIONS ARE NOT NWS OR FAA STATIONS AND ARE NOT UNDER
   NWS QUALITY CONTROL.

LAZ040-048-061>063-065-066-069-281600-
SOUTHEAST LOUISIANA

CITY           SKY/WX    TMP DP  RH WIND       PRES   REMARKS
N.O. AUDUBON   NOT AVBL
N.O. INTL ARPT CLOUDY    86  74  67 VRB5      30.01F
N.O. LAKEFRONT CLOUDY    84  72  67 N3        30.02F
N.O. DOWNTOWN* FAIR      83  74  74 VRB3      30.02F
RESERVE*       FAIR      86  75  68 NW5       30.01F HX  95
SLIDELL        CLOUDY    78  74  87 CALM      30.02S
BATON ROUGE    MOSUNNY   84  73  69 NW3       30.02S
BOOTHVILLE     MOSUNNY   83  74  74 N8        30.02F
BELLE CHASSE   CLOUDY    84  75  74 NE6       30.01F
BOGALUSA*      FAIR      82  73  73 N5        30.03F
GALLIANO*      CLOUDY    86  74  68 CALM      30.01F
NEW ROADS*     FAIR      83  75  76 NW3       30.02S
GONZALES*      FAIR      84  76  78 CALM      30.01S
HAMMOND*       CLOUDY    81  72  74 CALM      30.02S
HOUMA*         NOT AVBL
PORT FOURCHON* PTSUNNY   86  75  70 W6        30.01F HX  95

$$

LAZ041-044-053-054-281600-
SOUTHWEST LOUISIANA

CITY           SKY/WX    TMP DP  RH WIND       PRES   REMARKS
LAKE CHARLES   SUNNY     87  75  67 W3        30.03R HX  96
LAFAYETTE      SUNNY     88  76  67 VRB5      30.02S HX  99
PATTERSON      CLOUDY    85  77  77 CALM      30.03R HX  95
SALT POINT       N/A     82  76  81 CALM      30.01
NEW IBERIA     SUNNY     85  76  74 VRB3      30.03R
CHENAULT AIRPK MOSUNNY   86  75  70 N3        30.03R HX  95

$$

LAZ027-028-281600-
CENTRAL LOUISIANA

CITY           SKY/WX    TMP DP  RH WIND       PRES   REMARKS
FORT POLK      SUNNY     84  73  70 N6        30.03R
ALEXANDRIA INT SUNNY     84  76  76 N6        30.01R
ALEXANDRIA     SUNNY     86  76  71 CALM      30.03R HX  96

$$

LAZ001-002-281600-
NORTHWEST LOUISIANA

CITY           SKY/WX    TMP DP  RH WIND       PRES   REMARKS
SHREVEPORT     MOSUNNY   83  73  72 N8        30.06S
BARKSDALE AFB  SUNNY     81  72  75 N6        30.06S
DTN SHREVEPORT MOSUNNY   82  72  71 NE7       30.06S

$$

LAZ014-016-281600-
NORTHEAST LOUISIANA

CITY           SKY/WX    TMP DP  RH WIND       PRES   REMARKS
MONROE         CLOUDY    78  74  87 NE7       30.06R
TALLULAH       MOSUNNY   84  71  65 NE7       30.03S

$$





USA.gov is the U.S. government's official web portal to all federal, state and local government web resources and services.